Location: Eindhoven
(51.4416°N, 5.4697°E)
Time: 15:16:07
(UTC+01:00)

deb Explorer IX - Pass Details

Date: 24 November 2019
Orbit: 546 x 1104 km, 38.8° (Epoch: 14 December)

Event Time Altitude Azimuth Distance (km) Brightness Sun altitude
Rises 01:20:44 0° 241° (WSW) 3,831 - -57.1°
Reaches altitude 10° 01:24:01 10° 230° (SW) 2,814 - -56.9°
Maximum altitude 01:29:26 26° 177° (S) 1,794 - -56.5°
Drops below altitude 10° 01:34:19 10° 124° (SE) 2,521 - -56.1°
Sets 01:37:06 0° 111° (ESE) 3,359 - -55.9°
